Terminal Aerodrome Forecast
Issued by NWS

Home | Current Version | Previous Version | Graphics & Text | Print | Product List | Glossary On
Versions: 1 2 3 4 5 6 7 8 9 10 11 12 13 14 15 16 17 18 19 20 21 22 23 24
000
FTUS43 KBIS 282330
TAFDIK
TAF
KDIK 282330Z 2900/2924 36013KT P6SM FEW110
     FM290600 36015G24KT P6SM BKN015
     FM291500 36006KT P6SM SCT030=

USA.gov is the U.S. government's official web portal to all federal, state and local government web resources and services.